DELTA 1 R/B, 50

Orbit data source: Space-Track

DELTA 1 R/B, 50 is space debris in LEO originally from a launch on Fri, 12 Aug 1960 UTC launched from the Air Force Eastern Test Range (AFETR). Debris objects in space refer to the collection of defunct objects orbiting the Earth. Examples of debris include non-operational satellites, rocket bodies, and fragments generated from explosions, collisions, or faulty payload assembly.

Loading next visibility...
Identifier
50, 1960-009B
Orbit
LEO
Country
Flag of USUS
Related business
Manufacturer
ABL
Mission
Spacecraft
Bus & Motor
ALTAIR, Unknown motor
Mass
24 kg wet, 24 kg dry
Launch date (UTC)
1960-08-12 (65 years ago)
Launch vehicle
Unknown
Launch site
Air Force Eastern Test Range (AFETR)
Object type
Payload
Rocket body
Debris
Shape & HBR
Cyl, 0.8 m
Radar Cross Section
0.687 m², Medium (>0.1 m² and < 1m²)

Expand to show TLE details & history
Last TLE update: 16 hours ago

TLE from 16 hours ago
0 DELTA 1 R/B
1 00050U 60009B   25261.12811672 -.00000005  00000-0  75233-3 0  9993
2 00050  47.2310 286.1855 0114253 283.8519  74.9581 12.20158924904484
Epoch: 2025-09-18T03:04Z
TLE epoch observation values (Epoch: 2025-09-18T03:04:29.284Z)
Latitude
-0.00004°
Longitude
-117.23072°
Altitude
1,569.407 km
Speed
7.094 km/s
True Right ascension
19h 04m 44s
True Declination
0° 00' 00"
Sunlit
Object was in daylight at epoch
Visualization orbit readout
Latitude
Unknown
Longitude
Unknown
Altitude
Unknown
Speed
Unknown
Apparent Right ascension
Unknown
Apparent Declination
Unknown
Sunlit
N/A
Visualization observer readout
Local Sidereal Time
11:39:38
Azimuth
Unknown
Elevation
Unknown
Doppler factor
Unknown
Orbital elements
Apogee altitude
1,683.985 km
Perigee altitude
1,501.842 km
Semi-major axis
7,971.051 km
Eccentricity
0.01143
Inclination
47.231°
RAAN
286.1855°
Arg. of periapsis
283.8519°
True anomaly
76.22708°
Mean anomaly
74.9581°
Eccentric anomaly
75.59213°
Mean motion
3.04979 °/min
Orbital period
118.04 mins
BSTAR
0.00075233
Loading maneuver chart data...
Computing Atmospheric mass density...
Loading historical data...
Loading historical data...
Loading historical data...
Loading historical data...
Loading historical data...
Loading historical data...
Loading historical data...

Documentation

Showing up to 5 results
|